Location: Gwatt
(46.7204°N, 7.6223°E)
Time: 02:02:01
(UTC+00:00)

Abrixas rocket - Pass Details

Date: 18 September 2020
Orbit: 327 x 334 km, 48.4° (Epoch: 31 October)

Event Time Altitude Azimuth Distance (km) Brightness Sun altitude
Rises 19:35:43 0° 275° (W) 2,090 7.0 -20.8°
Reaches altitude 10° 19:37:43 10° 280° (W) 1,253 5.7 -21.1°
Enters shadow 19:39:38 36° 300° (WNW) 539 3.3 -21.4°
